BEESAT-3 (39135 NORAD) Tracking and Keplerian Element Data

This shows tracking and keplerian element data for the satellite.

Feedback or suggestion? Click here.




ElementValue
Catalog39135
NameBEESAT-3
Epoch Orbit33070
Epoch Day106.80168628
Epoch Year2019
RAAN241.5919
Inclination64.8664
Eccentricity0.0012038
Argument of Perigee316.8259
Mean Anonmoly43.1922
Mean Motion15.17326559
Decay Rate9.42E-06
L11 39135U 13015F 19106.80168628 .00000942 00000-0 56808-4 0 9993
L22 39135 64.8664 241.5919 0012038 316.8259 43.1922 15.17326559330704

Live tracking and technical data element details for BEESAT-3 (NORAD 39135). BEESAT-3 can be tracked NOW for your location showing map with azimuth and elevation plus other details from your city location.

Track the satellite on the map from your city or location and see movement details for azimuth, elevation, latitude, longitude, range, height, and movement on the map or in text.







IsCatalogInMostPopularTable: catalog: 39135, numindb: 193
Update: records affected: 1



GetName: 39135 BEESAT-3

Hit Count: updated at: Sat, 20 Apr 2019 00:25:52 GMT